Flag for Norway Weather past 2 weeks in Hamar, Norway

Now
50 °F

Cool.


Feels Like: 49 °F
Forecast: 47 / 54 °F
Wind: 3 mph from North

Location: Haugedalshogda

Current Time: Sep 2, 2015 at 8:27:27 AM

Latest Report: Sep 2, 2015 at 7:00 AM


Visibility: N/A

Pressure: 29.88 "Hg

Humidity: 88%

Dew point: 46 °F

Location of HamarLocation

Historic Weather in Hamar — Graph

°F

Hamar temperature yesterday

Maximum temperature yesterday: 62 °F (at 3:00 PM)
Minimum temperature yesterday: 45 °F (at 12:00 AM)
Average temperature yesterday: 54 °F

Past Weeks' High & Low Weather Summary

 TemperatureHumidityPressure
High77 °F (Aug 23, 6:00 PM)96% (Aug 19, 5:00 AM)30.46 "Hg (Aug 19, 5:00 AM)
Low32 °F (Aug 22, 5:00 AM)21% (Aug 19, 3:00 PM)29.47 "Hg (Aug 27, 8:00 PM)
Average56 °F72%30.06 "Hg
* Reported Aug 18 6:00 AM — Sep 2 6:00 AM, Hamar, Weather by CustomWeather, © 2015

Note: Actual official high and low records may vary slightly from our data, if they occured in-between our weather recording intervals... More about our weather records

Advertising

Hamar weather history for previous 24 hours

 ConditionsComfort  
Time TempWeatherWind HumidityBarometerVisibility
6:00 AM
Wed, Sep 2
50 °FCool.3 mph88%29.89 "HgN/A
5:00 AM50 °FCool.2 mph89%29.90 "HgN/A
4:00 AM52 °FCool.2 mph82%29.90 "HgN/A
3:00 AM53 °FCool.3 mph78%29.91 "HgN/A
2:00 AM53 °FCool.3 mph83%29.92 "HgN/A
1:00 AM51 °FCool.3 mph94%29.93 "HgN/A
12:00 AM51 °FCool.2 mph92%29.95 "HgN/A
10:00 PM
Tue, Sep 1
52 °FCool.2 mph91%29.96 "HgN/A
9:00 PM54 °FCool.2 mph81%29.96 "HgN/A
8:00 PM56 °FCool.1 mph69%29.95 "HgN/A
7:00 PM58 °FCool.2 mph64%29.94 "HgN/A
6:00 PM60 °FRefreshingly cool.2 mph56%29.94 "HgN/A
5:00 PM61 °FRefreshingly cool.3 mph53%29.94 "HgN/A
4:00 PM62 °FRefreshingly cool.3 mph54%29.94 "HgN/A
3:00 PM62 °FRefreshingly cool.3 mph52%29.94 "HgN/A
2:00 PM61 °FRefreshingly cool.5 mph54%29.96 "HgN/A
1:00 PM60 °FRefreshingly cool.3 mph55%29.98 "HgN/A
12:00 PM58 °FCool.6 mph63%29.99 "HgN/A
11:00 AM54 °FCool.6 mph70%30.00 "HgN/A
10:00 AM53 °FCool.6 mph72%30.01 "HgN/A
9:00 AM52 °FCool.5 mph76%30.02 "HgN/A
8:00 AM50 °FCool.3 mph80%30.02 "HgN/A
Weather by CustomWeather, © 2015

See weather overviewHow to use our weather pages